Location: *
(46.1006°N, 1.8394°E)
Time: 02:09:05
(UTC+00:00)

ARGOS - Pass Details

Date: 20 September 2019
Orbit: 821 x 834 km, 98.5° (Epoch: 22 October)

Event Time Altitude Azimuth Distance (km) Brightness Sun altitude
Exits shadow 18:35:08 - 114° (ESE) 2,558 5.1 -7.8°
Reaches altitude 10° 18:35:35 10° 111° (ESE) 2,423 4.9 -7.8°
Maximum altitude 18:39:42 23° 61° (ENE) 1,689 4.4 -8.5°
Drops below altitude 10° 18:43:50 10° 10° (N) 2,441 5.6 -9.2°
Sets 18:46:38 0° 357° (N) 3,382 6.5 -9.7°
